Hourly Data Report for June 01, 2021

BORDEN AWOS
ONTARIO
Current Station Operator: DND

44°16'20.000" N
79°54'42.000" W
222.50 m
611B002
71534
YBN

Download Data

Hourly Data (June 2021)
Hourly Data Report for June 1, 2021
TIME
LST
Temp Definition
°C
Dew Point Definition
°C
Rel Hum Definition
%
Precip. Amount Definition
mm

Wind Dir Definition
10's deg

Wind Spd Definition
km/h
Visibility Definition
km
Stn Press Definition
kPa
Hmdx Definition


Wind Chill Definition


Weather Definition


00:00 13.8 5.3 57   19 11 14.5 99.53     LegendNANA
01:00 14.0 5.4 56   20 9 14.5 99.50     LegendNANA
02:00 12.2 6.6 69     0 14.5 99.50     LegendNANA
03:00 15.3 6.9 57   23 7 14.5 99.49     LegendNANA
04:00 14.9 6.8 58   25 7 14.5 99.51     LegendNANA
05:00 13.6 6.4 62   24 9 14.5 99.49     LegendNANA
06:00 15.6 7.4 58   23 11 14.5 99.53     LegendNANA
07:00 17.4 8.0 54   24 13 14.5 99.56     LegendNANA
08:00 20.3 7.8 44   27 15 14.5 99.59     LegendNANA
09:00 20.8 7.3 42   29 11 14.5 99.60     LegendNANA
10:00 22.4 7.1 37   32 13 14.5 99.59     LegendNANA
11:00 22.6 7.1 37   32 9 14.5 99.58     LegendNANA
12:00 22.9 5.7 33   32 11 14.5 99.56     LegendNANA
13:00 24.3 6.9 33   25 13 14.5 99.52     LegendNANA
14:00 25.1 7.2 32   27 13 14.5 99.48 25   LegendNANA
15:00 23.4 7.3 36   27 7 14.5 99.47     LegendNANA
16:00 23.2 7.8 37   32 11 14.5 99.47     LegendNANA
17:00 23.0 8.4 39   34 15 14.5 99.48     LegendNANA
18:00 21.2 7.9 42   35 7 14.5 99.48     LegendNANA
19:00 19.6 8.1 47   35 9 14.5 99.50     LegendNANA
20:00 16.4 8.0 58   34 7 14.5 99.51     LegendNANA
21:00 11.7 7.5 75     0 11.3 99.52     LegendNANA
22:00 9.2 6.5 83   19 4 14.5 99.54     LegendNANA
23:00 8.2 6.0 86   14 4 14.5 99.53     LegendNANA

Notes on Data Quality.

Legend

  • E = Estimated
  • M = Missing
  • NA = Not Available*
  • [empty] = Indicates an unobserved value
Date modified: